Cer senin, cu nori Cirrus
Cer senin, cu nori Cirrus
Cer senin, cu nori Cirrus
Cer senin, cu puțini nori joși si Cirrus
Cer parțial înnorat, cu nori Cirrus
Înnorat
Parțial înnorat și nori Cirrus
(°C)
-1°
-1°
(°C)
-7°
-6°
-5°
-4°
-4°
-5°
-6°
SV
SV
SV
SV
SV
SV
SV
(km/h)
14-20
15-22
16-25
16-25
16-26
15-26
15-27
(mm)
0
0
0
0
0
0
0
(%)
0
0
0
0
0
0
0

Elevația soarelui

/ 22.5°
sun-icon
UV 2
07:43
18:29
Luna gibboasă în scădere (234°)
----
08:53

METAR pentru 55.31°N 61.5°E (USCC)

Ora Condiții Temperatură/
Punctul de rouă
Vânt Vizibilitate Vremea Nori Presiune Schimbă Brut
VFR -2°C / °C 230º 12kt 9700m - Clouds and Visibility OK 1029 No Significant change. Runway 27: Dry snow, 11-25% contamination with 5mm, friction coefficient 0.50. USCC 290530Z 23006MPS CAVOK M02/M18 Q1029 R27/420550 NOSIG RMK QFE752
VFR -2°C / °C 220º 12kt 9700m - Clouds and Visibility OK 1030 No Significant change. Runway 27: Dry snow, 11-25% contamination with 5mm, friction coefficient 0.50. USCC 290500Z 22006MPS CAVOK M02/M18 Q1030 R27/420550 NOSIG RMK QFE752
VFR -3°C / °C 220º 8kt 9700m - Clouds and Visibility OK 1030 No Significant change. Runway 27: Dry snow, 11-25% contamination with 5mm, friction coefficient 0.50. USCC 290430Z 22004MPS CAVOK M03/M17 Q1030 R27/420550 NOSIG RMK QFE752
VFR -3°C / °C 220º 10kt 9700m - Clouds and Visibility OK 1030 No Significant change. Runway 27: Dry snow, 11-25% contamination with 5mm, friction coefficient 0.50. USCC 290400Z 22005MPS CAVOK M03/M17 Q1030 R27/420550 NOSIG RMK QFE752
VFR -4°C / °C 230º 8kt 9700m - Clouds and Visibility OK 1030 No Significant change. Runway 27: Dry snow, 11-25% contamination with 5mm, friction coefficient 0.50. USCC 290330Z 23004MPS CAVOK M04/M18 Q1030 R27/420550 NOSIG RMK QFE752
VFR -5°C / °C 240º 6kt 9700m - Clouds and Visibility OK 1030 No Significant change. Runway 27: Dry snow, 11-25% contamination with 5mm, friction coefficient 0.50. USCC 290300Z 24003MPS CAVOK M05/M17 Q1030 R27/420550 NOSIG RMK QFE752
VFR -4°C / °C 250º 8kt 9700m - Clouds and Visibility OK 1030 No Significant change. Runway 27: Dry snow, 11-25% contamination with 5mm, friction coefficient 0.50. USCC 290230Z 25004MPS CAVOK M04/M18 Q1030 R27/420550 NOSIG RMK QFE752
VFR -3°C / °C 250º 8kt 9700m - Clouds and Visibility OK 1030 No Significant change. Runway 27: Dry snow, 11-25% contamination with 5mm, friction coefficient 0.50. USCC 290200Z 25004MPS CAVOK M03/M17 Q1030 R27/420550 NOSIG RMK QFE752
VFR -3°C / °C 250º 8kt 9700m - Clouds and Visibility OK 1030 No Significant change. Runway 27: Dry snow, 11-25% contamination with 5mm, friction coefficient 0.50. USCC 290130Z 25004MPS CAVOK M03/M16 Q1030 R27/420550 NOSIG RMK QFE752
VFR -3°C / °C 250º 4kt 9700m - Clouds and Visibility OK 1030 No Significant change. Runway 27: Dry snow, 11-25% contamination with 5mm, friction coefficient 0.50. USCC 290100Z 25002MPS CAVOK M03/M15 Q1030 R27/420550 NOSIG RMK QFE752
VFR -4°C / °C 240º 6kt 9700m - Clouds and Visibility OK 1030 No Significant change. Runway 27: Dry snow, 11-25% contamination with 5mm, friction coefficient 0.50. USCC 290030Z 24003MPS CAVOK M04/M14 Q1030 R27/420550 NOSIG RMK QFE752
VFR -4°C / °C 260º 6kt 9700m - Clouds and Visibility OK 1031 No Significant change. Runway 27: Dry snow, 11-25% contamination with 5mm, friction coefficient 0.50. USCC 290000Z 26003MPS CAVOK M04/M15 Q1031 R27/420550 NOSIG RMK QFE753
VFR -4°C / °C 260º 6kt 9700m - Clouds and Visibility OK 1031 No Significant change. Runway 27: Dry snow, 11-25% contamination with 5mm, friction coefficient 0.50. USCC 282330Z 26003MPS CAVOK M04/M15 Q1031 R27/420550 NOSIG RMK QFE753
VFR -3°C / °C 250º 6kt 9700m - Clouds and Visibility OK 1031 No Significant change. Runway 27: Dry snow, 11-25% contamination with 5mm, friction coefficient 0.50. USCC 282300Z 25003MPS CAVOK M03/M15 Q1031 R27/420550 NOSIG RMK QFE753
VFR -2°C / °C 260º 8kt 9700m - Clouds and Visibility OK 1031 No Significant change. Runway 27: Dry snow, 11-25% contamination with 5mm, friction coefficient 0.50. USCC 282230Z 26004MPS CAVOK M02/M14 Q1031 R27/420550 NOSIG RMK QFE753
VFR -3°C / °C 270º 8kt 9700m - Clouds and Visibility OK 1031 No Significant change. Runway 27: Dry snow, 11-25% contamination with 5mm, friction coefficient 0.50. USCC 282200Z 27004MPS CAVOK M03/M11 Q1031 R27/420550 NOSIG RMK QFE753
VFR -2°C / °C 280º 8kt 9700m - Clouds and Visibility OK 1031 No Significant change. Runway 27: Dry snow, 11-25% contamination with 5mm, friction coefficient 0.50. USCC 282130Z 28004MPS CAVOK M02/M10 Q1031 R27/420550 NOSIG RMK QFE753
VFR -1°C / °C 280º 8kt 9700m - Clouds and Visibility OK 1031 No Significant change. Runway 27: Dry snow, 11-25% contamination with 5mm, friction coefficient 0.50. USCC 282100Z 28004MPS CAVOK M01/M12 Q1031 R27/420550 NOSIG RMK QFE753
VFR 0°C / °C 280º 10kt 9700m - Clouds and Visibility OK 1031 No Significant change. Runway 27: Dry snow, 11-25% contamination with 5mm, friction coefficient 0.50. USCC 282030Z 28005MPS CAVOK M00/M12 Q1031 R27/420550 NOSIG RMK QFE753
VFR 0°C / °C 280º 10kt 9700m - Clouds and Visibility OK 1031 No Significant change. Runway 27: Dry snow, 11-25% contamination with 5mm, friction coefficient 0.50. USCC 282000Z 28005MPS CAVOK M00/M12 Q1031 R27/420550 NOSIG RMK QFE753
VFR 0°C / °C 290º 10kt 9700m - Clouds and Visibility OK 1031 No Significant change. Runway 27: Dry snow, 11-25% contamination with 5mm, friction coefficient 0.50. USCC 281930Z 29005MPS CAVOK 00/M14 Q1031 R27/420550 NOSIG RMK QFE753
VFR 0°C / °C 280º 10kt 9700m - Clouds and Visibility OK 1031 No Significant change. Runway 27: Dry snow, 11-25% contamination with 5mm, friction coefficient 0.50. USCC 281900Z 28005MPS CAVOK 00/M12 Q1031 R27/420550 NOSIG RMK QFE753
VFR 0°C / °C 280º 10kt 9700m - Clouds and Visibility OK 1031 No Significant change. Runway 27: Dry snow, 11-25% contamination with 5mm, friction coefficient 0.50. USCC 281830Z 28005MPS CAVOK 00/M11 Q1031 R27/420550 NOSIG RMK QFE753
VFR 0°C / -8°C 270º 8kt 9700m - Clouds and Visibility OK 1031 No Significant change. Runway 27: Dry snow, 11-25% contamination with 5mm, friction coefficient 0.50. USCC 281800Z 27004MPS CAVOK M00/M08 Q1031 R27/420550 NOSIG RMK QFE753

VFR

-2°C / °C

[Mai mult]
Vânt 230º 12kt
Vizibilitate 9700m
Vremea -
Nori Clouds and Visibility OK
Presiune 1029
Schimbă No Significant change. Runway 27: Dry snow, 11-25% contamination with 5mm, friction coefficient 0.50.
Brut USCC 290530Z 23006MPS CAVOK M02/M18 Q1029 R27/420550 NOSIG RMK QFE752

VFR

-2°C / °C

[Mai mult]
Vânt 220º 12kt
Vizibilitate 9700m
Vremea -
Nori Clouds and Visibility OK
Presiune 1030
Schimbă No Significant change. Runway 27: Dry snow, 11-25% contamination with 5mm, friction coefficient 0.50.
Brut USCC 290500Z 22006MPS CAVOK M02/M18 Q1030 R27/420550 NOSIG RMK QFE752

VFR

-3°C / °C

[Mai mult]
Vânt 220º 8kt
Vizibilitate 9700m
Vremea -
Nori Clouds and Visibility OK
Presiune 1030
Schimbă No Significant change. Runway 27: Dry snow, 11-25% contamination with 5mm, friction coefficient 0.50.
Brut USCC 290430Z 22004MPS CAVOK M03/M17 Q1030 R27/420550 NOSIG RMK QFE752

VFR

-3°C / °C

[Mai mult]
Vânt 220º 10kt
Vizibilitate 9700m
Vremea -
Nori Clouds and Visibility OK
Presiune 1030
Schimbă No Significant change. Runway 27: Dry snow, 11-25% contamination with 5mm, friction coefficient 0.50.
Brut USCC 290400Z 22005MPS CAVOK M03/M17 Q1030 R27/420550 NOSIG RMK QFE752

VFR

-4°C / °C

[Mai mult]
Vânt 230º 8kt
Vizibilitate 9700m
Vremea -
Nori Clouds and Visibility OK
Presiune 1030
Schimbă No Significant change. Runway 27: Dry snow, 11-25% contamination with 5mm, friction coefficient 0.50.
Brut USCC 290330Z 23004MPS CAVOK M04/M18 Q1030 R27/420550 NOSIG RMK QFE752

VFR

-5°C / °C

[Mai mult]
Vânt 240º 6kt
Vizibilitate 9700m
Vremea -
Nori Clouds and Visibility OK
Presiune 1030
Schimbă No Significant change. Runway 27: Dry snow, 11-25% contamination with 5mm, friction coefficient 0.50.
Brut USCC 290300Z 24003MPS CAVOK M05/M17 Q1030 R27/420550 NOSIG RMK QFE752

VFR

-4°C / °C

[Mai mult]
Vânt 250º 8kt
Vizibilitate 9700m
Vremea -
Nori Clouds and Visibility OK
Presiune 1030
Schimbă No Significant change. Runway 27: Dry snow, 11-25% contamination with 5mm, friction coefficient 0.50.
Brut USCC 290230Z 25004MPS CAVOK M04/M18 Q1030 R27/420550 NOSIG RMK QFE752

VFR

-3°C / °C

[Mai mult]
Vânt 250º 8kt
Vizibilitate 9700m
Vremea -
Nori Clouds and Visibility OK
Presiune 1030
Schimbă No Significant change. Runway 27: Dry snow, 11-25% contamination with 5mm, friction coefficient 0.50.
Brut USCC 290200Z 25004MPS CAVOK M03/M17 Q1030 R27/420550 NOSIG RMK QFE752

VFR

-3°C / °C

[Mai mult]
Vânt 250º 8kt
Vizibilitate 9700m
Vremea -
Nori Clouds and Visibility OK
Presiune 1030
Schimbă No Significant change. Runway 27: Dry snow, 11-25% contamination with 5mm, friction coefficient 0.50.
Brut USCC 290130Z 25004MPS CAVOK M03/M16 Q1030 R27/420550 NOSIG RMK QFE752

VFR

-3°C / °C

[Mai mult]
Vânt 250º 4kt
Vizibilitate 9700m
Vremea -
Nori Clouds and Visibility OK
Presiune 1030
Schimbă No Significant change. Runway 27: Dry snow, 11-25% contamination with 5mm, friction coefficient 0.50.
Brut USCC 290100Z 25002MPS CAVOK M03/M15 Q1030 R27/420550 NOSIG RMK QFE752

VFR

-4°C / °C

[Mai mult]
Vânt 240º 6kt
Vizibilitate 9700m
Vremea -
Nori Clouds and Visibility OK
Presiune 1030
Schimbă No Significant change. Runway 27: Dry snow, 11-25% contamination with 5mm, friction coefficient 0.50.
Brut USCC 290030Z 24003MPS CAVOK M04/M14 Q1030 R27/420550 NOSIG RMK QFE752

VFR

-4°C / °C

[Mai mult]
Vânt 260º 6kt
Vizibilitate 9700m
Vremea -
Nori Clouds and Visibility OK
Presiune 1031
Schimbă No Significant change. Runway 27: Dry snow, 11-25% contamination with 5mm, friction coefficient 0.50.
Brut USCC 290000Z 26003MPS CAVOK M04/M15 Q1031 R27/420550 NOSIG RMK QFE753

VFR

-4°C / °C

[Mai mult]
Vânt 260º 6kt
Vizibilitate 9700m
Vremea -
Nori Clouds and Visibility OK
Presiune 1031
Schimbă No Significant change. Runway 27: Dry snow, 11-25% contamination with 5mm, friction coefficient 0.50.
Brut USCC 282330Z 26003MPS CAVOK M04/M15 Q1031 R27/420550 NOSIG RMK QFE753

VFR

-3°C / °C

[Mai mult]
Vânt 250º 6kt
Vizibilitate 9700m
Vremea -
Nori Clouds and Visibility OK
Presiune 1031
Schimbă No Significant change. Runway 27: Dry snow, 11-25% contamination with 5mm, friction coefficient 0.50.
Brut USCC 282300Z 25003MPS CAVOK M03/M15 Q1031 R27/420550 NOSIG RMK QFE753

VFR

-2°C / °C

[Mai mult]
Vânt 260º 8kt
Vizibilitate 9700m
Vremea -
Nori Clouds and Visibility OK
Presiune 1031
Schimbă No Significant change. Runway 27: Dry snow, 11-25% contamination with 5mm, friction coefficient 0.50.
Brut USCC 282230Z 26004MPS CAVOK M02/M14 Q1031 R27/420550 NOSIG RMK QFE753

VFR

-3°C / °C

[Mai mult]
Vânt 270º 8kt
Vizibilitate 9700m
Vremea -
Nori Clouds and Visibility OK
Presiune 1031
Schimbă No Significant change. Runway 27: Dry snow, 11-25% contamination with 5mm, friction coefficient 0.50.
Brut USCC 282200Z 27004MPS CAVOK M03/M11 Q1031 R27/420550 NOSIG RMK QFE753

VFR

-2°C / °C

[Mai mult]
Vânt 280º 8kt
Vizibilitate 9700m
Vremea -
Nori Clouds and Visibility OK
Presiune 1031
Schimbă No Significant change. Runway 27: Dry snow, 11-25% contamination with 5mm, friction coefficient 0.50.
Brut USCC 282130Z 28004MPS CAVOK M02/M10 Q1031 R27/420550 NOSIG RMK QFE753

VFR

-1°C / °C

[Mai mult]
Vânt 280º 8kt
Vizibilitate 9700m
Vremea -
Nori Clouds and Visibility OK
Presiune 1031
Schimbă No Significant change. Runway 27: Dry snow, 11-25% contamination with 5mm, friction coefficient 0.50.
Brut USCC 282100Z 28004MPS CAVOK M01/M12 Q1031 R27/420550 NOSIG RMK QFE753

VFR

0°C / °C

[Mai mult]
Vânt 280º 10kt
Vizibilitate 9700m
Vremea -
Nori Clouds and Visibility OK
Presiune 1031
Schimbă No Significant change. Runway 27: Dry snow, 11-25% contamination with 5mm, friction coefficient 0.50.
Brut USCC 282030Z 28005MPS CAVOK M00/M12 Q1031 R27/420550 NOSIG RMK QFE753

VFR

0°C / °C

[Mai mult]
Vânt 280º 10kt
Vizibilitate 9700m
Vremea -
Nori Clouds and Visibility OK
Presiune 1031
Schimbă No Significant change. Runway 27: Dry snow, 11-25% contamination with 5mm, friction coefficient 0.50.
Brut USCC 282000Z 28005MPS CAVOK M00/M12 Q1031 R27/420550 NOSIG RMK QFE753

VFR

0°C / °C

[Mai mult]
Vânt 290º 10kt
Vizibilitate 9700m
Vremea -
Nori Clouds and Visibility OK
Presiune 1031
Schimbă No Significant change. Runway 27: Dry snow, 11-25% contamination with 5mm, friction coefficient 0.50.
Brut USCC 281930Z 29005MPS CAVOK 00/M14 Q1031 R27/420550 NOSIG RMK QFE753

VFR

0°C / °C

[Mai mult]
Vânt 280º 10kt
Vizibilitate 9700m
Vremea -
Nori Clouds and Visibility OK
Presiune 1031
Schimbă No Significant change. Runway 27: Dry snow, 11-25% contamination with 5mm, friction coefficient 0.50.
Brut USCC 281900Z 28005MPS CAVOK 00/M12 Q1031 R27/420550 NOSIG RMK QFE753

VFR

0°C / °C

[Mai mult]
Vânt 280º 10kt
Vizibilitate 9700m
Vremea -
Nori Clouds and Visibility OK
Presiune 1031
Schimbă No Significant change. Runway 27: Dry snow, 11-25% contamination with 5mm, friction coefficient 0.50.
Brut USCC 281830Z 28005MPS CAVOK 00/M11 Q1031 R27/420550 NOSIG RMK QFE753

VFR

0°C / -8°C

[Mai mult]
Vânt 270º 8kt
Vizibilitate 9700m
Vremea -
Nori Clouds and Visibility OK
Presiune 1031
Schimbă No Significant change. Runway 27: Dry snow, 11-25% contamination with 5mm, friction coefficient 0.50.
Brut USCC 281800Z 27004MPS CAVOK M00/M08 Q1031 R27/420550 NOSIG RMK QFE753

TAF pentru 55.31°N 61.5°E (USCC)

From till


From till Wind 220º 10kt. Gust 19kt. Visibility 9700m. Nil Significant Cloud.
From till Wind 290º 6kt. Gust 19kt. Visibility 9700m. Broken Clouds 2000ft.
Temporarly from till Wind 320º 16kt. Gust 25kt. Light Showers Snow . Broken Clouds 1600ft.

Brut: TAF USCC 290456Z 2906/0106 22005G10MPS CAVOK FM291500 29003G10MPS 9999 BKN020CB TEMPO 2915/0106 32008G13MPS -SHSN BKN016CB

Radar pentru 55.31°N 61.5°E

Burniță
Ușoară
Moderat
Greu
Foarte greu
Grindină

Markerul de locație este plasat în 55.31°N 61.5°E. Crucile portocalii indică fulgerele. Date furnizate de nowcast.de (disponibile în SUA, Europa, Australia). Ploaia sau ninsoarea slabă ar putea fi invizibilă pentru radar. Intensitatea precipitațiilor este codificată prin culori, de la turcoaz la roșu.

Imagini satelitare și ploaie pentru 55.31°N 61.5°E

Markerul cu locaţia este poziţionat pe 55.31°N 61.5°E. [Mai mult]

Imaginea satelitară în timp real combină lumina vizibilă din timpul zilei cu radiația cu infraroșu din timpul nopții. Pe timp de noapte, imaginea nu este întunecată, deoarece radiația cu infraroșu poate detecta diferențele de temperatură. Din păcate, norii joși și ceața sunt greu de recunoscut față de temperatura de la sol, din această cauză putând fi invizibili pe timp de noapte. Imaginile satelitare Meteosat pentru Europa sunt actualizate în timp real din 5 în 5 minute. Imaginile GOES-16/GOES-17 (America de Nord și de Sud) și Himawari (Asia) sunt actualizate din 10 în 10 minute.

Precipitațiile sunt estimate pe baza radarelor și a sateliților. Estimările de precipitații de la sateliți sunt mai puțin precise pe timp de noapte decât pe timp de zi.

© 2024 meteoblue, NOAA Satellites GOES-16 and EUMETSAT. Datele despre fulgere furnizate de către nowcast.

Mergi sus
×
Bună ziua,
se pare că folosiți un blocant de reclame.

Publicitatea este esențială pentru a menține site-ul nostru gratuit cu detalii și acuratețe unice.

Vă rugăm să whitelist www.meteoblue.com în ad blocker-ul dvs. sau luați în considerare cumpărarea unuia dintre produsele noastre:

Aveți deja un abonament?
Atunci vă rugăm login.